Location: *
(49.9853°N, 3.5569°E)
Time: 22:23:14
(UTC+00:00)

Cosmos 405 Rocket - Visible Passes

Search period start: 10 December 2019 00:00
Search period end: 20 December 2019 00:00
Orbit: 489 x 556 km, 81.3° (Epoch: 09 December)

Date Brightness Start Highest point End Pass type
(mag) Time Alt. Az. Time Alt. Az. Time Alt. Az.
13 Dec 5.0 17:13:30 10° NNE 17:13:31 10° NNE 17:13:31 10° NNE visible
14 Dec 4.1 17:00:42 10° NNE 17:02:41 17° NE 17:02:41 17° NE visible
14 Dec 4.4 18:36:04 10° NNW 18:44:10 - S 18:38:04 27° NW visible
15 Dec 4.1 06:56:08 10° SSE 06:59:43 41° E 07:03:15 10° NNE visible
15 Dec 4.1 16:47:55 10° NNE 16:50:23 17° ENE 16:52:51 10° ESE visible
15 Dec 3.7 18:23:05 10° NNW 18:26:39 45° W 18:30:12 10° S visible
16 Dec 4.4 06:43:19 10° SSE 06:46:48 37° E 06:50:16 10° NNE visible
16 Dec 4.2 16:35:10 10° NNE 16:37:25 15° ENE 16:39:41 10° E visible
16 Dec 3.4 18:10:08 10° NNW 18:13:45 50° W 18:17:22 10° S visible
17 Dec 4.6 06:30:31 10° SSE 06:33:55 33° E 06:37:17 10° NNE visible
17 Dec 4.3 16:22:26 10° NNE 16:24:27 14° ENE 16:26:28 10° E visible
17 Dec 3.2 17:57:11 10° NNW 18:00:50 57° W 18:04:31 10° S visible
18 Dec 4.8 06:17:43 10° SSE 06:21:01 30° E 06:24:18 10° NNE visible
18 Dec 3.0 17:44:13 10° NNW 17:47:55 65° W 17:51:38 10° S visible
19 Dec 5.0 06:04:57 10° SSE 06:08:08 27° E 06:11:16 10° NE visible
19 Dec 2.8 17:31:16 10° NNW 17:35:00 73° W 17:38:45 10° S visible
